When you browse on this site, cookies collect data to enhance your experience and personalize the content and advertising you see.
Visit our Privacy Policy to learn more. By continuing to use the site, you agree to this use of cookies and data.
  • Em Portugal
  • Lista de países
  • Para 7 dias
  • Temperatura da água
  • Mapa do tempo
  • Widgets de tempo
  • user-avatar
    Iniciar Sessão

    Previsão horária em Saharovo

    Hoje, 30 Maio, Sábado

    Tempo Temperatura Precipitação Vento Pressão Humidade
    00:00 +12°C° 0.1 mm 3 m/s 749 mmHg 95%
    01:00 +12°C° 0.1 mm 3 m/s 749 mmHg 95%
    02:00 +12°C° 0 mm 3 m/s 749 mmHg 96%
    03:00 +12°C° 0 mm 4 m/s 749 mmHg 95%
    04:00 +12°C° 0 mm 4 m/s 749 mmHg 95%
    05:00 +13°C° 0 mm 4 m/s 748 mmHg 94%
    06:00 +13°C° 0.1 mm 4 m/s 748 mmHg 93%
    07:00 +13°C° 0.1 mm 4 m/s 749 mmHg 93%
    08:00 +13°C° 0 mm 5 m/s 749 mmHg 91%
    09:00 +13°C° 0 mm 5 m/s 749 mmHg 91%
    10:00 +14°C° 0 mm 5 m/s 748 mmHg 90%
    11:00 +14°C° 0 mm 6 m/s 748 mmHg 89%
    12:00 +14°C° 0 mm 6 m/s 748 mmHg 88%
    13:00 +14°C° 0 mm 6 m/s 748 mmHg 87%
    14:00 +16°C° 0 mm 6 m/s 748 mmHg 79%
    15:00 +16°C° 0 mm 7 m/s 748 mmHg 78%
    16:00 +16°C° 0 mm 7 m/s 747 mmHg 76%
    17:00 +16°C° 0 mm 7 m/s 747 mmHg 75%
    18:00 +15°C° 0 mm 7 m/s 747 mmHg 76%
    19:00 +15°C° 0 mm 6 m/s 747 mmHg 78%
    20:00 +14°C° 0 mm 6 m/s 747 mmHg 79%
    21:00 +14°C° 0 mm 6 m/s 747 mmHg 77%
    22:00 +14°C° 0 mm 6 m/s 746 mmHg 76%
    23:00 +14°C° 0 mm 7 m/s 746 mmHg 74%

    Amanhã, 31 Maio, Domingo

    Tempo Temperatura Precipitação Vento Pressão Humidade
    00:00 +12°C° 0 mm 7 m/s 746 mmHg 75%
    01:00 +12°C° 0 mm 7 m/s 746 mmHg 76%
    02:00 +11°C° 0 mm 7 m/s 746 mmHg 77%
    03:00 +11°C° 0 mm 7 m/s 746 mmHg 75%
    04:00 +10°C° 0 mm 7 m/s 746 mmHg 73%
    05:00 +10°C° 0 mm 7 m/s 746 mmHg 72%
    06:00 +11°C° 0 mm 7 m/s 746 mmHg 68%
    07:00 +12°C° 0 mm 7 m/s 746 mmHg 64%
    08:00 +12°C° 0 mm 7 m/s 747 mmHg 60%
    09:00 +14°C° 0 mm 7 m/s 747 mmHg 58%
    10:00 +14°C° 0 mm 7 m/s 747 mmHg 56%
    11:00 +15°C° 0 mm 7 m/s 747 mmHg 55%
    12:00 +15°C° 0.1 mm 7 m/s 747 mmHg 53%
    13:00 +15°C° 0.1 mm 7 m/s 747 mmHg 52%
    14:00 +15°C° 0.1 mm 7 m/s 747 mmHg 51%
    15:00 +14°C° 0.1 mm 7 m/s 747 mmHg 54%
    16:00 +12°C° 0.1 mm 7 m/s 747 mmHg 57%
    17:00 +11°C° 0.1 mm 7 m/s 747 mmHg 60%
    18:00 +10°C° 0 mm 6 m/s 748 mmHg 63%
    19:00 +9°C° 0 mm 5 m/s 748 mmHg 66%
    20:00 +7°C° 0 mm 4 m/s 748 mmHg 69%
    21:00 +7°C° 0 mm 4 m/s 748 mmHg 72%
    22:00 +6°C° 0 mm 4 m/s 748 mmHg 74%
    23:00 +5°C° 0 mm 4 m/s 748 mmHg 77%

    Depois de amanhã, 1 Junho, Segunda-feira

    Tempo Temperatura Precipitação Vento Pressão Humidade
    00:00 +5°C° 0 mm 4 m/s 748 mmHg 76%
    01:00 +5°C° 0 mm 4 m/s 748 mmHg 75%
    02:00 +6°C° 0 mm 5 m/s 748 mmHg 74%
    03:00 +5°C° 0.4 mm 5 m/s 748 mmHg 80%
    04:00 +5°C° 0.4 mm 5 m/s 748 mmHg 85%
    05:00 +5°C° 0.4 mm 5 m/s 748 mmHg 91%
    06:00 +5°C° 0.2 mm 5 m/s 748 mmHg 91%
    07:00 +5°C° 0.2 mm 5 m/s 749 mmHg 90%
    08:00 +6°C° 0.2 mm 5 m/s 749 mmHg 89%
    09:00 +7°C° 0 mm 4 m/s 749 mmHg 83%
    10:00 +8°C° 0 mm 4 m/s 750 mmHg 77%
    11:00 +11°C° 0 mm 4 m/s 750 mmHg 71%
    12:00 +11°C° 0.4 mm 4 m/s 750 mmHg 71%
    13:00 +12°C° 0.4 mm 4 m/s 750 mmHg 70%
    14:00 +13°C° 0.4 mm 5 m/s 750 mmHg 69%
    15:00 +13°C° 0.5 mm 4 m/s 750 mmHg 71%
    16:00 +12°C° 0.5 mm 4 m/s 750 mmHg 73%
    17:00 +12°C° 0.5 mm 4 m/s 749 mmHg 74%
    18:00 +11°C° 0.1 mm 3 m/s 750 mmHg 76%
    19:00 +9°C° 0.1 mm 3 m/s 750 mmHg 77%
    20:00 +8°C° 0.1 mm 3 m/s 750 mmHg 79%
    21:00 +7°C° 0 mm 3 m/s 750 mmHg 81%
    22:00 +5°C° 0 mm 3 m/s 750 mmHg 82%
    23:00 +5°C° 0 mm 3 m/s 751 mmHg 84%

    2 Junho, Terça-feira

    Tempo Temperatura Precipitação Vento Pressão Humidade
    00:00 +4°C° 0 mm 3 m/s 751 mmHg 85%
    01:00 +4°C° 0 mm 3 m/s 751 mmHg 86%
    02:00 +3°C° 0 mm 3 m/s 751 mmHg 87%
    03:00 +4°C° 0 mm 3 m/s 751 mmHg 85%
    04:00 +4°C° 0 mm 4 m/s 751 mmHg 83%
    05:00 +5°C° 0 mm 4 m/s 751 mmHg 81%
    06:00 +6°C° 0 mm 4 m/s 751 mmHg 74%
    07:00 +8°C° 0 mm 5 m/s 751 mmHg 67%
    08:00 +10°C° 0 mm 5 m/s 751 mmHg 60%
    09:00 +12°C° 0 mm 5 m/s 751 mmHg 59%
    10:00 +12°C° 0 mm 5 m/s 751 mmHg 57%
    11:00 +13°C° 0 mm 5 m/s 751 mmHg 55%
    12:00 +13°C° 0 mm 5 m/s 750 mmHg 55%
    13:00 +13°C° 0 mm 5 m/s 750 mmHg 55%
    14:00 +14°C° 0 mm 5 m/s 750 mmHg 55%
    15:00 +13°C° 0 mm 5 m/s 750 mmHg 57%
    16:00 +13°C° 0 mm 5 m/s 750 mmHg 59%
    17:00 +13°C° 0 mm 4 m/s 750 mmHg 61%
    18:00 +12°C° 0 mm 4 m/s 750 mmHg 65%
    19:00 +11°C° 0 mm 4 m/s 750 mmHg 69%
    20:00 +10°C° 0 mm 3 m/s 749 mmHg 74%
    21:00 +10°C° 0 mm 3 m/s 749 mmHg 75%
    22:00 +10°C° 0 mm 4 m/s 749 mmHg 76%
    23:00 +8°C° 0 mm 4 m/s 749 mmHg 77%

    3 Junho, Quarta-feira

    Tempo Temperatura Precipitação Vento Pressão Humidade
    00:00 +8°C° 0.1 mm 4 m/s 749 mmHg 79%
    01:00 +8°C° 0.1 mm 4 m/s 749 mmHg 80%
    02:00 +8°C° 0.1 mm 4 m/s 749 mmHg 82%
    03:00 +8°C° 0 mm 4 m/s 748 mmHg 83%
    04:00 +8°C° 0 mm 4 m/s 748 mmHg 85%
    05:00 +8°C° 0 mm 4 m/s 748 mmHg 87%
    06:00 +9°C° 0 mm 5 m/s 748 mmHg 86%
    07:00 +9°C° 0 mm 5 m/s 748 mmHg 84%
    08:00 +10°C° 0 mm 5 m/s 748 mmHg 82%
    09:00 +10°C° 0 mm 5 m/s 748 mmHg 82%
    10:00 +12°C° 0 mm 5 m/s 748 mmHg 81%
    11:00 +12°C° 0 mm 5 m/s 748 mmHg 81%
    12:00 +13°C° 0 mm 4 m/s 748 mmHg 80%
    13:00 +13°C° 0 mm 4 m/s 748 mmHg 78%
    14:00 +14°C° 0 mm 4 m/s 748 mmHg 77%
    15:00 +14°C° 0 mm 4 m/s 748 mmHg 79%
    16:00 +14°C° 0 mm 3 m/s 748 mmHg 80%
    17:00 +14°C° 0 mm 3 m/s 748 mmHg 81%
    18:00 +14°C° 0 mm 3 m/s 747 mmHg 83%
    19:00 +14°C° 0 mm 3 m/s 747 mmHg 84%
    20:00 +13°C° 0 mm 3 m/s 747 mmHg 85%
    21:00 +13°C° 0 mm 3 m/s 747 mmHg 86%
    22:00 +13°C° 0 mm 3 m/s 747 mmHg 86%
    23:00 +13°C° 0 mm 3 m/s 747 mmHg 87%

    4 Junho, Quinta-feira

    Tempo Temperatura Precipitação Vento Pressão Humidade
    00:00 +13°C° 0.1 mm 3 m/s 746 mmHg 89%
    01:00 +13°C° 0.1 mm 4 m/s 746 mmHg 91%
    02:00 +13°C° 0.1 mm 4 m/s 746 mmHg 93%
    03:00 +12°C° 0 mm 4 m/s 745 mmHg 93%
    04:00 +12°C° 0 mm 4 m/s 745 mmHg 93%
    05:00 +12°C° 0 mm 5 m/s 745 mmHg 92%
    06:00 +12°C° 0.9 mm 5 m/s 744 mmHg 93%
    07:00 +13°C° 0.9 mm 5 m/s 744 mmHg 93%
    08:00 +13°C° 0.9 mm 6 m/s 744 mmHg 94%
    09:00 +13°C° 0.5 mm 6 m/s 744 mmHg 94%
    10:00 +14°C° 0.5 mm 5 m/s 744 mmHg 93%
    11:00 +14°C° 0.5 mm 5 m/s 744 mmHg 93%
    12:00 +14°C° 0 mm 5 m/s 744 mmHg 92%
    13:00 +15°C° 0 mm 5 m/s 743 mmHg 91%
    14:00 +15°C° 0 mm 4 m/s 743 mmHg 89%
    15:00 +15°C° 0 mm 4 m/s 743 mmHg 89%
    16:00 +15°C° 0 mm 4 m/s 743 mmHg 88%
    17:00 +17°C° 0 mm 4 m/s 743 mmHg 87%
    18:00 +15°C° 0.3 mm 4 m/s 742 mmHg 89%
    19:00 +15°C° 0.3 mm 4 m/s 742 mmHg 90%
    20:00 +15°C° 0.3 mm 4 m/s 742 mmHg 92%
    21:00 +15°C° 0.6 mm 5 m/s 742 mmHg 93%
    22:00 +14°C° 0.6 mm 5 m/s 741 mmHg 95%
    23:00 +14°C° 0.6 mm 5 m/s 741 mmHg 96%
    Mostrar mais